Location: ČR
(50.0000°N, 15.0000°E)
Time: 21:09:45
(UTC+00:00)

Vanguard 3 - Pass Details

Date: 21 October 2021
Orbit: 508 x 3260 km, 33.4° (Epoch: 04 December)

Event Time Altitude Azimuth Distance (km) Brightness Sun altitude
Rises 15:09:13 0° 187° (S) 3,438 10.9 6.3°
Reaches altitude 10° 15:14:23 10° 148° (SSE) 3,091 10.1 5.6°
Maximum altitude 15:15:44 11° 138° (SE) 3,212 10.0 5.4°
Drops below altitude 10° 15:17:13 10° 128° (SE) 3,426 10.1 5.1°
Sets 15:25:00 0° 95° (E) 5,304 10.8 4.0°
